Wind_Speed
24 24 23 23 24 24 22 20 19 19 19 18 18 18 17 18 18 17 16 15 14 14 13 12 11 10 10 10 9 9 9 9 9 9 10 9 9 9 9 9 9 8 8 8 7 7 7 6 6
26 26 25 25 25 25 23 21 21 21 22 21 20 19 19 19 19 18 18 17 16 15 14 13 13 12 11 11 11 10 10 11 11 11 11 11 10 10 10 10 10 10 10 10 9 8 8 8 8
27 27 27 27 27 25 24 23 23 23 23 23 22 22 21 20 20 20 19 19 18 17 16 15 14 14 13 13 13 12 12 12 12 12 12 12 12 12 11 11 11 12 12 12 11 11 10 10 10
28 28 28 28 27 25 25 25 25 25 24 25 24 24 23 22 22 21 20 20 19 19 18 17 16 15 15 14 14 14 14 13 13 13 13 14 14 14 13 13 13 13 13 13 13 13 13 12 12
29 29 29 29 27 26 27 27 26 26 26 26 25 25 25 24 23 22 22 21 21 20 19 18 17 17 16 16 16 16 15 15 15 15 15 15 15 16 16 15 15 15 15 15 15 15 14 14 14
30 30 30 29 28 27 27 27 27 27 27 27 27 26 26 26 25 24 23 22 22 21 21 20 19 19 18 18 18 18 18 17 17 17 17 17 17 17 17 17 17 17 17 17 17 16 16 16 16
32 32 31 30 29 29 28 28 28 28 28 28 28 27 27 27 26 25 24 24 23 23 22 21 21 21 20 20 20 20 20 20 20 19 19 19 19 19 18 18 19 19 19 19 19 18 18 18 18
33 33 32 31 30 30 29 29 30 30 29 29 29 29 28 28 28 27 26 25 24 24 24 24 23 22 22 22 22 22 22 22 22 22 22 22 22 22 21 21 21 20 20 20 21 20 20 20 20
34 34 33 31 31 30 31 31 31 32 32 31 30 30 29 29 29 29 28 27 26 26 26 25 25 24 24 24 24 24 24 24 24 24 24 24 24 24 24 23 23 23 22 22 22 22 22 22 22
34 35 33 32 32 32 32 33 33 33 33 32 32 31 31 30 30 30 29 29 29 28 27 27 27 27 26 26 26 26 26 26 26 26 26 26 26 26 26 25 25 26 26 25 25 24 24 24 24
32 33 32 32 32 33 34 34 34 34 34 34 34 34 33 33 32 32 32 31 31 30 30 30 30 29 29 29 29 29 28 28 28 28 28 28 28 27 27 27 27 27 27 27 27 27 26 26 26
31 31 32 32 33 33 34 35 35 35 35 35 35 36 35 35 35 34 34 34 34 33 32 32 32 32 31 31 31 31 30 31 31 30 30 30 30 30 30 29 29 29 29 29 29 29 28 28 28
31 31 32 33 33 34 34 35 35 35 35 35 36 36 36 36 36 36 36 36 35 35 35 34 35 34 34 34 33 33 33 33 33 33 33 33 33 32 32 31 31 31 31 31 31 30 30 30 30
31 31 32 33 34 34 34 35 35 35 36 36 37 37 37 37 37 37 37 37 37 37 37 36 36 36 36 36 35 35 35 35 35 34 34 34 34 34 34 34 33 33 33 33 33 33 32 32 31
31 32 32 33 33 33 35 35 35 35 37 37 37 38 39 39 38 38 38 38 38 38 39 38 38 38 38 38 38 37 37 37 36 37 36 36 36 36 36 36 35 35 35 35 35 35 35 34 33
32 32 33 33 34 34 34 34 35 36 37 38 38 38 39 39 39 39 39 40 40 40 40 40 40 40 39 39 39 39 39 39 38 38 38 38 38 37 37 37 37 37 37 37 37 36 36 36 36
32 32 32 33 34 34 35 34 34 36 37 38 39 39 40 40 40 40 40 41 41 41 41 41 41 41 41 40 40 39 40 40 40 40 40 40 39 39 38 38 38 39 39 39 39 39 38 38 38
32 32 32 33 34 34 35 35 35 36 38 39 40 41 41 41 41 41 41 42 42 42 42 42 43 43 43 42 41 41 41 42 42 41 41 41 40 40 40 40 40 40 40 41 41 40 40 40 40
31 32 33 33 33 34 34 35 36 37 38 39 40 41 42 41 42 42 43 43 43 43 43 43 43 44 45 44 44 43 43 43 43 43 42 42 42 42 41 41 41 41 42 42 42 42 42 43 43
32 32 32 32 32 33 34 35 35 36 37 38 39 40 41 42 43 42 43 44 44 44 44 44 44 44 45 44 45 45 45 44 44 44 44 44 44 43 43 42 42 42 42 43 43 44 44 44 44
31 32 32 32 32 34 35 35 34 35 36 37 38 39 41 42 42 42 43 44 45 44 45 44 44 45 45 44 45 46 47 46 46 46 46 46 46 45 44 44 44 44 44 44 44 44 44 44 44
31 31 32 32 33 33 34 35 33 34 34 35 35 36 38 39 40 41 42 43 43 44 44 44 45 45 46 46 46 46 47 47 47 47 47 48 47 47 46 46 46 46 45 45 45 45 45 46 46
31 31 32 33 33 34 34 35 34 33 33 33 33 34 35 37 38 40 41 41 41 42 43 43 45 46 46 47 47 47 47 47 47 47 48 48 49 48 48 48 47 47 47 46 46 46 46 47 47
31 32 32 33 34 35 34 35 34 33 32 32 32 33 34 35 36 37 39 40 40 41 41 42 43 44 45 46 46 46 47 47 48 48 48 49 49 49 49 49 49 49 48 48 48 48 48 47 47
31 31 32 33 34 35 34 35 35 33 32 32 32 33 33 34 35 36 37 38 39 40 41 41 41 42 43 44 45 46 46 47 48 48 49 49 50 50 50 50 50 50 50 49 49 49 50 49 49
31 31 31 32 33 33 33 34 33 33 32 31 32 32 33 33 34 35 36 38 39 40 41 41 41 41 43 44 45 46 47 47 47 48 48 49 49 50 50 50 50 50 50 51 51 51 52 51 51
31 30 30 32 33 33 33 33 32 31 31 31 31 32 32 32 33 34 35 37 38 39 41 41 41 41 42 43 43 45 46 46 46 46 46 46 47 48 49 49 50 51 51 51 51 52 52 53 53
30 30 31 32 32 33 33 32 31 30 30 30 31 31 32 32 33 34 34 35 36 37 39 40 40 41 41 42 43 44 45 45 45 45 46 46 46 46 47 48 49 50 51 52 53 53 53 53 54
30 30 31 32 33 33 34 33 31 30 29 30 30 31 32 33 33 34 34 35 36 37 38 39 39 40 41 41 42 43 43 44 46 46 46 46 47 47 48 48 49 50 51 51 52 53 54 54 54
30 30 31 31 32 33 33 32 30 30 30 30 31 31 31 32 33 33 33 34 36 37 38 39 39 40 41 41 42 42 43 43 44 46 47 47 47 48 49 50 50 50 51 52 53 54 54 54 55
Wind_Direction
235 235 235 235 236 236 237 236 235 233 233 234 234 234 232 233 232 234 233 232 230 228 227 227 226 225 224 221 220 220 216 215 214 213 211 212 213 215 218 224 228 227 227 228 230 232 232 235 238
237 235 236 237 237 238 238 238 236 235 235 236 236 236 235 234 234 235 234 231 231 231 230 231 230 230 227 224 224 226 224 222 221 221 220 221 223 225 228 231 234 235 235 236 239 240 240 240 243
238 236 236 237 238 239 239 238 237 237 236 237 237 238 237 237 236 237 236 232 232 233 234 235 235 234 232 230 231 233 230 227 226 226 227 229 230 233 235 237 240 242 242 243 244 245 245 245 246
239 238 238 238 239 240 240 239 238 238 237 237 237 238 238 238 238 238 238 235 233 234 235 236 237 238 238 236 235 238 237 234 232 232 234 235 238 240 241 242 244 246 246 247 248 249 249 249 250
238 239 239 239 240 240 240 240 240 240 238 238 237 238 238 238 238 238 237 237 235 235 235 235 238 239 241 241 241 242 241 241 239 238 239 241 243 245 246 245 246 247 249 249 249 251 251 252 253
239 241 241 240 240 241 241 240 240 241 240 240 238 237 238 238 237 238 238 239 238 237 236 237 239 239 242 243 244 245 245 244 244 242 243 245 246 247 248 248 248 249 251 253 252 253 254 255 256
241 242 243 242 241 241 240 240 239 239 239 240 240 238 238 237 237 238 239 240 240 239 238 239 241 242 244 245 246 247 247 245 244 245 246 247 249 249 250 250 250 251 253 253 253 254 255 256 257
241 242 242 242 242 242 241 240 239 238 239 240 239 239 238 237 238 239 239 240 240 240 241 240 241 244 245 247 247 248 249 249 248 247 249 250 252 253 254 254 253 253 254 255 255 256 256 257 258
241 242 243 243 243 242 241 241 240 241 241 240 240 239 239 239 239 240 240 240 241 241 242 242 242 245 247 248 249 250 251 250 250 249 251 252 254 255 256 256 256 256 256 257 258 257 258 259 259
241 242 243 242 241 241 240 240 241 242 241 241 240 240 240 240 240 240 240 241 242 242 242 244 244 246 248 249 250 251 251 252 252 252 254 254 255 256 256 257 257 258 258 258 258 258 259 260 260
243 243 242 240 240 240 240 241 242 242 242 242 241 241 241 241 241 241 241 242 243 244 244 244 246 247 249 250 251 252 253 253 253 254 254 256 256 257 257 258 258 258 259 259 259 259 260 260 260
245 244 242 241 240 240 241 242 242 243 243 243 243 243 242 242 243 242 242 243 244 244 245 246 247 249 250 251 252 253 254 254 254 255 255 256 257 258 258 259 259 259 259 259 259 259 260 261 262
245 245 244 243 242 242 243 243 244 244 244 243 243 244 243 243 243 244 244 244 246 246 247 248 249 251 252 253 254 255 255 255 256 256 256 257 257 258 259 260 259 259 259 258 258 258 259 260 261
247 247 246 245 244 244 245 245 245 245 245 244 244 244 243 243 243 243 244 245 246 247 248 249 251 251 251 253 255 256 256 256 256 257 257 257 257 257 258 259 259 260 260 258 258 258 258 259 260
247 248 247 246 245 246 247 247 246 245 245 245 245 245 244 244 244 244 244 246 247 248 249 250 252 253 254 255 256 257 257 256 256 256 256 256 256 256 257 258 259 259 260 259 258 259 258 259 259
248 249 249 248 247 247 249 248 247 246 247 247 246 246 245 245 246 247 246 247 248 249 250 251 253 254 256 256 257 258 258 257 256 256 256 256 257 257 258 258 258 258 259 259 259 259 258 258 259
248 250 251 250 249 248 249 250 248 248 248 248 248 247 247 246 246 247 248 249 250 250 251 253 254 255 256 257 257 258 258 258 256 256 256 257 257 258 258 258 259 258 258 258 258 259 258 259 260
250 251 253 253 251 250 250 251 251 250 250 249 249 249 247 247 247 248 249 249 250 251 253 254 255 255 256 256 258 259 258 257 256 256 257 257 257 258 259 259 259 259 259 259 259 259 259 260 261
251 252 254 255 253 252 253 253 253 253 253 252 251 250 249 247 247 248 248 249 250 251 253 255 256 256 256 257 257 258 258 257 257 257 257 257 258 258 258 259 259 259 259 259 259 260 260 260 261
251 253 254 256 255 254 254 254 255 255 255 255 253 252 250 250 249 248 249 250 250 251 253 256 257 257 257 257 257 258 257 257 258 258 257 257 257 257 258 259 259 259 260 260 260 260 260 260 260
252 254 255 257 257 257 257 256 256 256 256 256 256 254 252 251 250 249 250 251 252 252 253 255 256 257 257 258 258 259 258 257 257 257 258 257 257 257 258 259 260 260 260 260 260 260 260 260 261
252 255 256 257 257 258 258 259 256 257 257 257 256 255 254 252 250 249 250 251 253 253 254 255 255 256 257 258 258 259 258 258 257 257 258 258 257 257 258 259 260 260 261 261 260 261 261 261 262
253 255 257 258 258 258 258 261 259 258 258 257 256 255 254 253 252 251 249 251 252 254 255 255 255 256 258 259 258 258 258 257 257 257 257 257 258 258 259 259 260 260 260 261 261 261 262 262 263
253 256 257 258 258 258 258 260 260 258 259 257 256 256 255 255 254 253 251 251 252 253 255 256 257 258 259 259 258 258 258 258 257 257 258 257 258 259 260 260 259 259 260 261 261 262 262 263 263
254 256 258 259 259 260 259 259 259 259 259 259 259 258 257 257 256 255 254 254 254 255 256 258 258 258 258 259 259 259 258 258 258 258 258 259 259 259 259 260 260 260 260 261 262 263 263 263 264
256 256 258 261 262 262 260 259 260 259 259 259 259 259 259 258 257 257 257 257 257 258 258 259 258 258 258 259 259 259 259 259 258 259 259 260 261 261 260 261 261 261 261 262 263 264 264 264 264
256 257 259 261 262 262 261 261 260 260 260 260 260 260 260 259 259 259 259 260 260 260 260 261 260 259 260 261 260 259 258 258 258 259 259 260 261 261 260 261 261 262 262 263 263 264 265 264 264
257 259 259 260 261 262 262 262 262 262 261 262 262 261 261 261 261 261 262 262 262 262 261 261 261 260 260 261 261 260 259 258 258 258 259 259 260 261 261 261 262 262 263 263 264 264 265 264 264
257 259 259 260 260 261 262 262 262 263 262 263 264 263 263 262 263 263 262 263 263 263 263 263 261 260 261 261 261 260 260 260 258 258 258 259 260 261 261 263 264 263 263 263 265 264 264 265 264
259 260 260 260 262 261 262 263 263 264 264 264 265 265 264 264 264 266 266 266 265 264 265 265 263 262 262 263 263 262 261 261 260 259 260 260 261 262 263 264 265 265 265 266 267 267 266 266 266
Height
5824 5826 5828 5830 5832 5833 5835 5838 5839 5841 5842 5843 5845 5846 5847 5849 5851 5854 5853 5852 5853 5854 5855 5856 5856 5857 5858 5859 5859 5860 5860 5861 5861 5862 5863 5863 5864 5864 5864 5865 5865 5865 5866 5866 5866 5866 5867 5867 5867
5820 5822 5824 5825 5827 5829 5832 5834 5835 5837 5838 5840 5841 5842 5844 5845 5846 5848 5848 5850 5851 5852 5852 5853 5854 5855 5856 5857 5858 5858 5858 5859 5860 5860 5861 5862 5862 5863 5863 5863 5864 5864 5864 5864 5865 5865 5865 5865 5866
5815 5817 5819 5821 5822 5825 5828 5830 5831 5832 5834 5835 5837 5838 5840 5842 5843 5844 5845 5847 5848 5849 5850 5851 5852 5853 5854 5855 5856 5856 5857 5857 5858 5858 5859 5860 5860 5861 5861 5861 5862 5862 5862 5863 5863 5863 5863 5863 5864
5810 5812 5814 5816 5818 5821 5823 5824 5826 5827 5829 5831 5833 5834 5836 5838 5839 5841 5842 5843 5845 5846 5847 5848 5849 5850 5851 5852 5853 5854 5854 5855 5855 5856 5857 5857 5858 5858 5859 5859 5859 5860 5860 5860 5860 5861 5861 5861 5862
5804 5806 5808 5810 5813 5816 5817 5819 5821 5822 5824 5826 5828 5829 5831 5833 5835 5836 5838 5839 5841 5842 5843 5845 5846 5847 5848 5849 5850 5851 5852 5852 5853 5854 5854 5854 5855 5855 5856 5856 5856 5857 5857 5857 5858 5858 5858 5859 5859
5798 5800 5803 5805 5808 5810 5812 5814 5815 5817 5819 5820 5822 5824 5826 5828 5830 5832 5834 5835 5837 5839 5840 5841 5842 5843 5844 5845 5846 5847 5848 5849 5850 5850 5851 5851 5852 5852 5852 5853 5853 5853 5854 5854 5854 5855 5855 5855 5856
5793 5795 5797 5800 5802 5804 5807 5808 5809 5811 5813 5815 5817 5819 5821 5823 5825 5827 5829 5831 5833 5834 5836 5837 5838 5839 5841 5841 5842 5843 5844 5845 5846 5847 5847 5848 5848 5848 5849 5849 5849 5850 5850 5850 5851 5851 5851 5852 5852
5786 5789 5790 5793 5796 5799 5801 5801 5803 5805 5807 5809 5811 5814 5816 5818 5820 5822 5824 5826 5828 5830 5831 5833 5834 5835 5836 5837 5838 5839 5840 5841 5842 5842 5843 5844 5844 5844 5844 5845 5845 5846 5846 5846 5847 5847 5847 5848 5848
5778 5782 5784 5788 5790 5792 5793 5795 5797 5799 5801 5803 5806 5808 5810 5812 5815 5817 5819 5821 5823 5825 5826 5828 5829 5830 5831 5832 5833 5834 5835 5836 5837 5838 5838 5839 5839 5840 5840 5840 5841 5841 5841 5842 5842 5842 5843 5843 5843
5771 5774 5779 5781 5783 5785 5786 5788 5790 5792 5795 5797 5800 5802 5804 5806 5809 5811 5813 5815 5817 5819 5821 5822 5824 5825 5826 5827 5828 5829 5830 5831 5832 5832 5833 5834 5834 5835 5835 5835 5836 5836 5837 5837 5837 5837 5837 5838 5838
5765 5768 5771 5773 5775 5777 5779 5781 5783 5785 5788 5791 5793 5795 5798 5800 5802 5805 5807 5809 5811 5813 5815 5817 5818 5819 5820 5822 5823 5823 5824 5825 5826 5826 5827 5828 5828 5829 5829 5829 5830 5830 5831 5831 5832 5832 5832 5832 5832
5758 5761 5764 5766 5768 5770 5771 5774 5776 5778 5782 5784 5786 5788 5790 5793 5795 5798 5800 5802 5804 5806 5808 5810 5812 5813 5814 5815 5816 5817 5818 5819 5819 5820 5821 5821 5822 5823 5823 5823 5824 5824 5825 5825 5826 5826 5826 5826 5826
5751 5754 5756 5758 5760 5762 5764 5766 5768 5771 5774 5776 5778 5780 5783 5785 5788 5790 5792 5795 5797 5799 5801 5803 5804 5806 5807 5808 5809 5810 5811 5812 5812 5813 5814 5814 5815 5816 5816 5816 5816 5817 5818 5818 5819 5819 5820 5820 5820
5745 5746 5748 5750 5752 5754 5757 5759 5761 5764 5766 5768 5770 5773 5775 5778 5780 5782 5784 5787 5789 5791 5793 5795 5797 5798 5799 5800 5801 5802 5803 5804 5805 5805 5806 5807 5807 5808 5808 5809 5809 5810 5810 5811 5812 5812 5813 5813 5813
5737 5739 5741 5743 5745 5747 5749 5752 5754 5755 5757 5759 5762 5764 5767 5770 5772 5774 5776 5778 5780 5782 5784 5786 5788 5789 5791 5792 5793 5794 5795 5795 5796 5797 5797 5798 5799 5800 5800 5801 5802 5802 5803 5803 5804 5804 5805 5806 5806
5729 5731 5734 5736 5738 5739 5742 5744 5746 5747 5748 5751 5753 5756 5758 5761 5763 5766 5768 5770 5772 5773 5775 5777 5779 5780 5782 5783 5784 5785 5785 5786 5787 5787 5788 5789 5790 5791 5792 5793 5793 5794 5795 5795 5796 5796 5797 5798 5799
5721 5724 5727 5729 5730 5732 5734 5736 5738 5739 5740 5742 5744 5747 5749 5752 5754 5756 5758 5760 5762 5764 5766 5767 5769 5771 5772 5773 5774 5775 5776 5776 5777 5778 5779 5780 5780 5781 5782 5784 5785 5785 5786 5787 5788 5788 5789 5790 5790
5716 5717 5719 5721 5722 5724 5725 5728 5729 5730 5732 5733 5735 5737 5740 5742 5745 5747 5749 5751 5752 5754 5756 5758 5759 5761 5762 5763 5764 5765 5766 5766 5767 5768 5769 5770 5771 5772 5773 5774 5775 5776 5777 5778 5779 5780 5780 5781 5782
5707 5709 5711 5713 5714 5715 5717 5719 5720 5721 5723 5724 5726 5728 5730 5732 5735 5737 5739 5740 5742 5744 5746 5747 5749 5750 5751 5752 5754 5755 5755 5756 5757 5758 5759 5760 5761 5762 5763 5764 5765 5766 5767 5768 5769 5770 5771 5771 5772
5699 5701 5703 5704 5706 5707 5708 5710 5711 5712 5714 5715 5716 5718 5720 5722 5724 5726 5728 5730 5731 5733 5735 5736 5738 5739 5740 5741 5742 5743 5744 5746 5747 5748 5749 5750 5751 5752 5753 5754 5755 5756 5757 5758 5759 5759 5760 5761 5762
5692 5694 5695 5696 5697 5698 5699 5702 5703 5704 5705 5706 5707 5708 5709 5711 5714 5716 5718 5719 5721 5723 5724 5725 5727 5728 5729 5730 5731 5732 5733 5734 5735 5737 5738 5739 5740 5741 5743 5744 5745 5746 5747 5748 5748 5749 5750 5751 5751
5684 5686 5687 5688 5688 5689 5691 5691 5695 5695 5696 5696 5697 5698 5699 5701 5703 5705 5707 5709 5710 5712 5713 5714 5716 5717 5718 5718 5719 5720 5721 5723 5724 5725 5726 5727 5729 5730 5732 5733 5734 5735 5736 5737 5737 5738 5739 5740 5740
5676 5677 5678 5679 5679 5681 5682 5682 5686 5686 5687 5688 5688 5689 5689 5691 5693 5695 5696 5698 5699 5701 5702 5703 5704 5705 5706 5706 5707 5708 5710 5711 5712 5713 5714 5716 5717 5719 5720 5721 5722 5723 5724 5725 5726 5727 5727 5728 5729
5667 5669 5669 5670 5670 5672 5674 5674 5676 5677 5678 5679 5679 5680 5680 5681 5682 5684 5686 5687 5688 5690 5691 5692 5693 5693 5694 5695 5695 5696 5698 5699 5700 5701 5702 5704 5705 5707 5708 5709 5710 5711 5712 5713 5714 5715 5715 5716 5717
5659 5661 5661 5660 5661 5663 5665 5665 5667 5669 5669 5670 5670 5671 5671 5672 5673 5674 5676 5677 5678 5679 5680 5681 5682 5682 5682 5683 5683 5684 5685 5686 5688 5689 5690 5692 5693 5694 5696 5697 5698 5699 5700 5701 5702 5703 5703 5704 5704
5651 5653 5654 5654 5654 5655 5656 5656 5659 5660 5660 5661 5661 5662 5662 5663 5664 5665 5666 5667 5668 5669 5669 5670 5670 5670 5671 5671 5671 5672 5673 5675 5676 5677 5678 5679 5680 5682 5683 5684 5685 5686 5687 5688 5689 5690 5690 5691 5691
5642 5643 5645 5645 5644 5645 5646 5649 5651 5651 5651 5652 5653 5653 5653 5654 5655 5656 5656 5657 5658 5658 5658 5658 5659 5659 5659 5660 5660 5660 5662 5663 5664 5665 5666 5667 5668 5669 5670 5671 5672 5673 5674 5675 5676 5677 5677 5678 5678
5635 5635 5636 5636 5635 5636 5638 5640 5642 5642 5643 5643 5644 5644 5644 5645 5646 5646 5647 5647 5647 5647 5647 5647 5647 5648 5648 5648 5649 5649 5650 5651 5652 5652 5654 5655 5656 5657 5658 5658 5659 5660 5661 5662 5662 5663 5663 5664 5664
5626 5627 5627 5627 5627 5629 5629 5634 5634 5634 5634 5634 5634 5635 5635 5636 5636 5636 5637 5637 5637 5636 5637 5637 5636 5637 5637 5637 5637 5638 5639 5639 5640 5640 5641 5643 5644 5645 5646 5646 5647 5647 5648 5648 5648 5648 5649 5649 5650
5617 5618 5619 5620 5620 5620 5621 5626 5625 5625 5625 5625 5625 5625 5626 5626 5626 5626 5626 5626 5626 5626 5626 5626 5626 5626 5626 5626 5626 5626 5627 5627 5628 5629 5630 5630 5632 5633 5633 5634 5634 5634 5634 5634 5634 5634 5635 5635 5635